Sheridan, WY

8:30 PM MDT on May 29, 2017 (GMT -0600)
Sheridan County

Weather History for KSHR - September, 2013

Change the Weather History Date:

Wednesday, September 25, 2013

  Actual Average Record
Temperature  
Mean Temperature 52 °F 54 °F  
Max Temperature 61 °F 69 °F 94 °F (2015)
Min Temperature 42 °F 38 °F 6 °F (1984)
Degree Days  
Heating Degree Days 13 12  
Month to date heating degree days 75 177  
Since 1 July heating degree days 76 239  
Cooling Degree Days 0 0  
Month to date cooling degree days 82 26  
Year to date cooling degree days 592 416  
Growing Degree Days 2 (Base 50)    
Moisture  
Dew Point 42 °F    
Average Humidity 70    
Maximum Humidity 93    
Minimum Humidity 47    
Precipitation  
Precipitation 0.34 in 0.05 in 0.68 in (1936)
Month to date precipitation 3.23 1.16  
Year to date precipitation 13.22 11.21  
Sea Level Pressure  
Sea Level Pressure 29.65 in    
Wind  
Wind Speed 7 mph (NW)    
Max Wind Speed 21 mph    
Max Gust Speed 24 mph    
Visibility 9 miles    
Events Rain , Thunderstorm    
T = Trace of Precipitation, MM = Missing Value Source: NWS Daily Summary

Daily Weather History Graph

Daily Weather History Graph

Search for Another Location

Airport or City:

Trip Planner

Search our weather history database for the weather conditions in past years. The results will help you decide how hot, cold, wet, or windy it might be!

Date:

Astronomy

Sep. 25, 2013 Rise Set
Actual Time 6:58 AM MDT 6:59 PM MDT
Civil Twilight 6:29 AM MDT 7:28 PM MDT
Nautical Twilight 5:55 AM MDT 8:02 PM MDT
Astronomical Twilight 5:20 AM MDT 8:37 PM MDT
Moon 10:55 PM MDT (9/25) 1:20 PM MDT (9/25)
Length of Visible Light 12h 58m
Length of Day
12h 00m
Waning Gibbous, 63% of the Moon is Illuminated
Sep 25
Waning Gibbous
Sep 26
Last Quarter
Oct 4
New
Oct 11
First Quarter
Oct 18
Full

Hourly Weather History & Observations

Time (MDT) Temp. Windchill Dew Point Humidity Pressure Visibility Wind Dir Wind Speed Gust Speed Precip Events Conditions
12:53 AM 55.9 °F - 37.0 °F 49% 29.61 in 10.0 mi WNW 9.2 mph - N/A   Clear
1:53 AM 57.0 °F - 37.0 °F 47% 29.62 in 10.0 mi NW 13.8 mph - N/A   Clear
2:53 AM 52.0 °F - 37.9 °F 59% 29.62 in 10.0 mi Calm Calm - N/A   Clear
3:53 AM 52.0 °F - 37.9 °F 59% 29.61 in 10.0 mi WNW 9.2 mph - N/A   Clear
4:53 AM 50.0 °F - 39.0 °F 66% 29.63 in 10.0 mi Calm Calm - N/A   Clear
5:53 AM 51.1 °F - 37.9 °F 61% 29.63 in 10.0 mi WNW 10.4 mph - N/A   Clear
6:53 AM 52.0 °F - 37.0 °F 57% 29.65 in 10.0 mi WNW 13.8 mph - N/A   Partly Cloudy
7:53 AM 52.0 °F - 37.9 °F 59% 29.68 in 10.0 mi NW 13.8 mph - N/A   Mostly Cloudy
8:53 AM 53.1 °F - 39.0 °F 59% 29.67 in 10.0 mi NW 10.4 mph - N/A   Scattered Clouds
9:53 AM 57.0 °F - 39.9 °F 53% 29.64 in 10.0 mi NW 9.2 mph - N/A   Clear
10:53 AM 57.9 °F - 39.0 °F 49% 29.62 in 10.0 mi Variable 3.5 mph - N/A   Clear
11:53 AM 57.9 °F - 41.0 °F 53% 29.59 in 10.0 mi ENE 6.9 mph - N/A   Mostly Cloudy
12:53 PM 60.1 °F - 43.0 °F 53% 29.58 in 10.0 mi North 6.9 mph - N/A   Mostly Cloudy
1:53 PM 57.0 °F - 44.1 °F 62% 29.57 in 10.0 mi North 8.1 mph - N/A   Overcast
2:53 PM 57.9 °F - 42.1 °F 56% 29.56 in 10.0 mi NNE 6.9 mph - N/A   Overcast
3:53 PM 50.0 °F - 46.0 °F 86% 29.60 in 10.0 mi WNW 15.0 mph - 0.00 in Rain , Thunderstorm Light Thunderstorms and Rain
4:15 PM 48.2 °F - 46.4 °F 93% 29.62 in 10.0 mi WNW 15.0 mph - 0.01 in Rain Light Rain
4:53 PM 48.9 °F - 46.9 °F 93% 29.62 in 7.0 mi WNW 11.5 mph - 0.02 in Rain Rain
5:21 PM 48.2 °F - 46.4 °F 93% 29.65 in 7.0 mi NW 12.7 mph - 0.05 in Rain Light Rain
5:53 PM 48.0 °F - 46.0 °F 93% 29.66 in 2.5 mi NW 12.7 mph - 0.18 in Rain Heavy Rain
5:57 PM 48.2 °F - 46.4 °F 93% 29.69 in 3.0 mi NW 13.8 mph - 0.00 in Rain Rain
6:10 PM 48.2 °F - 46.4 °F 93% 29.73 in 5.0 mi WNW 16.1 mph - 0.03 in Rain Rain
6:17 PM 48.2 °F - 46.4 °F 93% 29.73 in 3.0 mi NW 16.1 mph - 0.07 in Rain Heavy Rain
6:53 PM 46.9 °F - 45.0 °F 93% 29.70 in 10.0 mi NNW 15.0 mph - 0.13 in Rain Light Rain
7:53 PM 46.0 °F 43.1 °F 44.1 °F 93% 29.69 in 10.0 mi NE 5.8 mph - 0.01 in Rain Light Rain
8:53 PM 46.0 °F - 43.0 °F 89% 29.70 in 10.0 mi Calm Calm - 0.00 in   Mostly Cloudy
9:11 PM 44.6 °F - 42.8 °F 93% 29.72 in 10.0 mi Calm Calm - N/A   Overcast
9:53 PM 46.0 °F - 44.1 °F 93% 29.69 in 10.0 mi Calm Calm - N/A   Overcast
10:53 PM 45.0 °F - 43.0 °F 93% 29.68 in 10.0 mi Calm Calm - N/A   Mostly Cloudy
11:53 PM 45.0 °F - 43.0 °F 93% 29.69 in 10.0 mi Calm Calm - N/A   Scattered Clouds